Location: Allentsteig
(48.6833°N, 15.3167°E)
Time: 17:08:07
(UTC+00:00)

Lacrosse 4 Rocket - Pass Details

Date: 18 September 2020
Orbit: 543 x 615 km, 68.0° (Epoch: 29 October)

Event Time Altitude Azimuth Distance (km) Brightness Sun altitude
Rises 19:20:36 0° 335° (NNW) 2,716 5.7 -22.2°
Reaches altitude 10° 19:23:38 10° 360° (N) 1,822 4.3 -22.6°
Enters shadow 19:25:50 15° 33° (NNE) 1,534 3.5 -23.0°
